CW9676 Weather Reports


time (UTC)temp
C
wind
direction
speed
KPH
gust
KPH
rain 1hr
cm
rain 24hr
cm
rain mn
cm
humidity
%
barometer
mb
20260503072053 10 359 8.0 17.7 0.00 0.03 0.00 71 1017.2
20260503071046 10 16 9.7 17.7 0.00 0.03 0.00 70 1017.3
20260503054931 10 340 8.0 14.5 0.00 0.15 0.15 68 1017.3
20260503053912 10 335 9.7 14.5 0.00 0.15 0.15 68 1017.3
20260503052856 10 335 8.0 14.5 0.00 0.15 0.15 68 1017.3
20260503051835 10 325 8.0 14.5 0.00 0.15 0.15 68 1017.5
20260503045712 10 321 8.0 16.1 0.00 0.23 0.15 68 1017.4
20260503044714 10 331 8.0 16.1 0.00 0.23 0.15 68 1017.3
20260503043703 10 326 8.0 12.9 0.00 0.23 0.15 69 1017.4
20260503042706 10 326 8.0 16.1 0.00 0.23 0.15 68 1017.4
20260503041646 10 4 9.7 17.7 0.00 0.23 0.15 68 1017.1
20260503040626 10 337 9.7 17.7 0.00 0.23 0.15 69 1017.0
20260503033313 11 359 9.7 17.7 0.00 0.23 0.15 68 1016.5
20260503032247 11 4 9.7 17.7 0.00 0.23 0.15 67 1016.6
20260503031310 11 355 9.7 17.7 0.00 0.23 0.15 67 1016.5
20260503030241 11 359 9.7 17.7 0.00 0.23 0.15 67 1016.4
20260503025218 11 4 9.7 16.1 0.00 0.23 0.15 67 1016.5
20260503024206 11 337 8.0 16.1 0.00 0.23 0.15 67 1016.4
20260503023138 11 348 6.4 14.5 0.00 0.23 0.15 67 1016.6
20260503022110 11 321 8.0 16.1 0.00 0.23 0.15 67 1016.5
20260503021109 12 342 9.7 16.1 0.00 0.23 0.15 66 1016.6
20260503020058 12 341 9.7 17.7 0.00 0.23 0.15 65 1016.6
20260503015042 12 334 9.7 19.3 0.00 0.23 0.15 65 1016.5
20260503014022 12 337 11.3 19.3 0.00 0.23 0.15 63 1016.2
20260503013008 12 338 12.9 19.3 0.00 0.23 0.15 61 1016.1
20260503010839 12 359 9.7 20.9 0.00 0.23 0.15 62 1016.1
20260503005842 13 359 8.0 22.5 0.00 0.23 0.15 60 1016.3
20260503004851 13 341 12.9 22.5 0.00 0.23 0.15 60 1016.1
20260503003836 13 316 12.9 19.3 0.00 0.23 0.15 59 1015.9
20260503002807 13 23 12.9 27.4 0.00 0.23 0.15 59 1015.7
20260503000706 14 69 12.9 27.4 0.00 0.23 0.15 53 1015.6
20260502235716 14 50 14.5 27.4 0.00 0.30 0.15 54 1015.6
20260502234720 14 59 12.9 20.9 0.00 0.30 0.15 54 1015.6
20260502233711 14 46 9.7 19.3 0.00 0.30 0.15 54 1015.6
20260502232708 14 29 11.3 22.5 0.00 0.30 0.15 54 1015.6
20260502231703 14 50 12.9 22.5 0.00 0.30 0.15 53 1015.6
20260502224436 15 31 14.5 24.1 0.00 0.30 0.15 55 1015.6
20260502223424 15 28 14.5 25.7 0.00 0.30 0.15 55 1015.7
20260502222444 14 26 14.5 25.7 0.00 0.41 0.15 57 1015.8
20260502221453 14 46 12.9 24.1 0.00 0.51 0.15 58 1016.0
20260502220440 15 44 11.3 25.7 0.00 0.89 0.15 56 1016.1
20260502214301 15 67 14.5 24.1 0.00 0.89 0.15 55 1016.4
20260502212121 15 90 14.5 29.0 0.00 0.89 0.15 56 1016.7
20260502205955 14 63 16.1 30.6 0.00 0.89 0.15 61 1016.7
20260502204933 13 37 16.1 29.0 0.00 0.89 0.15 61 1016.9
20260502203957 15 68 12.9 27.4 0.00 0.89 0.15 58 1017.0
20260502203008 15 87 12.9 30.6 0.00 0.89 0.15 56 1017.0
20260502202031 14 29 12.9 30.6 0.00 0.89 0.15 59 1017.1
20260502192446 12 53 16.1 30.6 0.00 0.89 0.15 68 1017.8
20260502191442 13 30 16.1 32.2 0.00 0.89 0.15 66 1017.8
20260502190415 12 4 17.7 32.2 0.00 0.89 0.15 69 1018.0
20260502185436 12 359 17.7 29.0 0.00 0.89 0.15 66 1018.2
20260502183350 12 34 19.3 33.8 0.00 0.89 0.15 70 1018.4
20260502182352 12 42 19.3 33.8 0.00 0.89 0.15 68 1018.4
20260502181342 12 353 17.7 30.6 0.00 0.89 0.15 70 1018.5
20260502180314 12 341 16.1 29.0 0.00 0.89 0.15 71 1018.7
20260502163804 9 25 14.5 25.7 0.00 0.89 0.15 79 1018.5
20260502162804 8 341 19.3 32.2 0.00 0.89 0.15 83 1018.4
20260502161818 8 4 19.3 32.2 0.00 0.89 0.15 84 1018.3
20260502160804 8 9 19.3 27.4 0.00 0.89 0.15 84 1018.2
20260502150337 7 359 16.1 27.4 0.00 0.89 0.15 93 1017.6
20260502120729 6 353 6.4 16.1 0.00 0.86 0.13 96 1015.3
20260502115713 6 331 8.0 16.1 0.00 0.86 0.13 96 1015.0
20260502114700 7 335 8.0 16.1 0.00 0.86 0.13 96 1015.1
20260502113722 7 344 6.4 14.5 0.00 0.86 0.13 96 1015.1
20260502112714 7 352 4.8 8.0 0.00 0.86 0.13 96 1015.2
20260502111725 7 348 3.2 6.4 0.00 0.86 0.13 96 1015.2
20260502110658 7 329 4.8 9.7 0.00 0.86 0.13 96 1015.0
20260502105709 7 321 6.4 9.7 0.00 0.86 0.13 96 1014.8
20260502102448 7 345 4.8 8.0 0.00 0.86 0.13 96 1014.8
20260502101446 7 319 3.2 6.4 0.00 0.86 0.13 96 1014.9
20260502100425 7 329 1.6 4.8 0.00 0.86 0.13 96 1015.0
20260502091209 7 340 3.2 6.4 0.00 0.86 0.13 95 1014.7
20260502090145 7 353 3.2 4.8 0.00 0.86 0.13 95 1014.7